Hourly Data Report for October 04, 2017

All times are specified in Local Standard Time (LST). Add 1 hour to adjust for Daylight Saving Time where and when it is observed.

GJOA HAVEN A
NUNAVUT

68°38'08.000" N
95°51'01.000" W
46.90 m
2302337
71597
YHK

Related Data

No related data is available for this station

Download Data

Hourly Data (October 2017)
Hourly Data Report for October 4, 2017
Temp Definition
°C
Dew Point Temp Definition
°C
Rel Hum Definition
%
Wind Dir Definition
10's deg

Wind Spd Definition
km/h
Visibility Definition
km
Stn Press Definition
kPa
Hmdx Definition


Wind Chill Definition


Weather Definition


TIME
00:00 Legend Double Dagger -6.9 -7.7 94 31 58 1.6 99.15   -18 Snow
01:00 Legend Double Dagger -6.8 -7.5 95 31 59 1.6 99.07   -18 Snow
02:00 Legend Double Dagger -6.7 -7.4 95 31 72 1.0 98.97   -19 Snow
03:00 Legend Double Dagger -6.5 -7.2 95 31 65 0.8 98.87   -18 Moderate Snow
04:00 Legend Double Dagger -5.9 -6.4 96 32 67 1.0 98.84   -17 Snow
05:00 Legend Double Dagger -5.3 -5.8 96 33 68 1.0 98.75   -17 Snow
06:00 Legend Double Dagger -5.2 -5.7 96 33 68 0.8 98.71   -16 Moderate Snow
07:00 Legend Double Dagger -4.8 -5.3 96 33 71 0.8 98.65   -16 Moderate Snow
08:00 Legend Double Dagger -4.3 -4.8 96 33 67 0.8 98.63   -15 Moderate Snow
09:00 Legend Double Dagger -4.0 -4.4 97 33 71 0.8 98.58   -15 Moderate Snow
10:00 Legend Double Dagger -3.8 -4.3 96 33 71 0.8 98.59   -15 Moderate Snow
11:00 Legend Double Dagger -3.7 -4.1 97 34 65 0.4 98.61   -14 Heavy Snow
12:00 Legend Double Dagger -3.8 -4.2 97 34 63 0.2 98.60   -14 Heavy Snow
13:00 Legend Double Dagger -3.9 -4.3 97 34 61 0.2 98.65   -14 Heavy Snow
14:00 Legend Double Dagger -4.1 -4.5 97 34 61 0.2 98.67   -15 Heavy Snow
15:00 Legend Double Dagger -4.2 -4.6 97 34 71 0.4 98.68   -15 Heavy Snow
16:00 Legend Double Dagger -4.7 -5.1 97 34 61 0.6 98.73   -15 Moderate Snow
17:00 Legend Double Dagger -4.9 -5.3 97 34 63 0.2 98.74   -16 Heavy Snow
18:00 Legend Double Dagger -5.2 -5.7 96 34 65 0.6 98.74   -16 Moderate Snow
19:00 Legend Double Dagger -5.4 -5.9 96 34 63 0.8 98.70   -16 Moderate Snow
20:00 Legend Double Dagger -5.3 -5.7 97 34 58 1.0 98.70   -16 Snow
21:00 Legend Double Dagger -5.1 -5.5 97 34 54 1.2 98.66   -15 Snow
22:00 Legend Double Dagger -5.1 -5.5 97 34 58 1.2 98.66   -16 Snow
23:00 Legend Double Dagger -4.6 -5.0 97 34 52 1.2 98.67   -15 Snow

Notes on Data Quality.

Legend

  • E = Estimated
  • M = Missing
  • NA = Not Available
  • ‡ = Partner data that is not subject to review by the National Climate Archives
Date modified: